Regional Weather Roundup
Issued by NWS

Home | Current Version | Previous Version | Graphics & Text | Print | Product List | Glossary On
Versions: 1 2 3 4 5 6 7 8 9 10 11 12 13 14 15 16 17 18 19 20 21 22 23 24 25 26 27 28 29 30 31 32 33 34 35 36 37 38 39 40 41 42 43 44 45 46 47 48 49 50
000
ASUS43 KOAX 232110
RWRNE

WEATHER ROUNDUP FOR NEBRASKA
NATIONAL WEATHER SERVICE OMAHA NE
400 PM CDT MON APR 23 2018

NOTES: SATELLITE DATA IS BEING USED TO AUGMENT CLOUD COVER ABOVE
       12000 FEET.
       "FAIR" INDICATES FEW OR NO CLOUDS BELOW 12,000 FEET WITH NO
       SIGNIFICANT WEATHER AND/OR OBSTRUCTIONS TO VISIBILITY.


NEZ001>004-019>022-054>056-232200-
NEBRASKA PANHANDLE

CITY           SKY/WX    TMP DP  RH WIND       PRES   REMARKS
SCOTTSBLUFF    PTSUNNY   67  41  38 SE14      30.01R
ALLIANCE       SUNNY     66  41  40 SE25G33   30.01F
CHADRON        MOSUNNY   69  40  34 S15G24    29.98S
GORDON         FAIR      67  38  35 SE16G23   30.01F
KIMBALL        MOSUNNY   63  38  39 S15       30.03R
SIDNEY         MOSUNNY   67  39  35 SE22G30   30.02F
$$

NEZ057>060-069>072-079>082-232200-
SOUTHWEST NEBRASKA

CITY           SKY/WX    TMP DP  RH WIND       PRES   REMARKS
NORTH PLATTE   MOSUNNY   69  43  38 SW15G25   30.06F
IMPERIAL       MOSUNNY   68  38  33 SE16G26   30.05F
LEXINGTON      CLOUDY    69  39  32 S8        30.08F
MCCOOK         MOSUNNY   69  42  37 SE15G22   30.07F
OGALLALA       PTSUNNY   67  39  35 S15G23    30.04F
$$

NEZ005>010-023>029-035>040-094-232200-
NORTH CENTRAL NEBRASKA

CITY           SKY/WX    TMP DP  RH WIND       PRES   REMARKS
VALENTINE      MOSUNNY   69  38  32 S17G26    30.06F
AINSWORTH      PTSUNNY   67  39  36 SE13G18   30.08F
BROKEN BOW     PTSUNNY   67  39  35 SE14      30.08F
O`NEILL        CLOUDY    70  33  25 E8        30.10F
ORD            PTSUNNY   67  36  31 SE12      30.09F
THEDFORD       SUNNY     68  40  36 SE16G25   30.07F
$$

NEZ041-046>049-061>064-073>077-083>087-232200-
SOUTH CENTRAL NEBRASKA

CITY           SKY/WX    TMP DP  RH WIND       PRES   REMARKS
GRAND ISLAND   MOSUNNY   70  38  31 VRB3      30.09F
AURORA         MOSUNNY   70  35  27 SE6       30.09F
HASTINGS       SUNNY     69  39  33 E6        30.09F
HEBRON         SUNNY     72  34  24 CALM      30.08F
HOLDREGE       MOSUNNY   67  40  36 SE9       30.09F
KEARNEY        MOSUNNY   68  39  34 S8        30.10F
YORK             N/A     70  36  28 CALM      30.09F
$$

NEZ011>018-030>034-042>045-232200-
NORTHEAST NEBRASKA

CITY           SKY/WX    TMP DP  RH WIND       PRES   REMARKS
NORFOLK        SUNNY     70  31  23 CALM      30.09F
ALBION         MOSUNNY   70  36  28 S7        30.10F
BLAIR          SUNNY     73  31  21 NE6       30.09F
COLUMBUS       SUNNY     70  35  27 VRB3      30.10F
FREMONT        SUNNY     73  28  18 CALM      30.10F
TEKAMAH        SUNNY     72  27  18 NE3       30.09F
WAYNE          SUNNY     71  27  18 CALM      30.10F
$$

NEZ050>053-065>068-078-088>093-232200-
SOUTHEAST NEBRASKA

CITY           SKY/WX    TMP DP  RH WIND       PRES   REMARKS
LINCOLN        SUNNY     74  29  19 CALM      30.10F
OMAHA EPPLEY   MOSUNNY   75  29  18 E5        30.08F
BEATRICE       SUNNY     74  34  23 E6        30.07F
FALLS CITY     SUNNY     74  25  16 NE10G18   30.05F
NEBRASKA CITY  SUNNY     73  32  21 CALM      30.08F
PLATTSMOUTH    SUNNY     74  26  16 N6G16     30.08F
$$

NEZ044-045-051>053-067-232200-
OMAHA AREA

CITY           SKY/WX    TMP DP  RH WIND       PRES   REMARKS
OMAHA EPPLEY   MOSUNNY   75  29  18 E5        30.08F
BLAIR          SUNNY     73  31  21 NE6       30.09F
FREMONT        SUNNY     73  28  18 CALM      30.10F
MILLARD        SUNNY     73  31  21 CALM      30.08F
PLATTSMOUTH    SUNNY     74  26  16 N6G16     30.08F
WAHOO          FAIR      74  20  13 CALM      30.09F
$$



USA.gov is the U.S. government's official web portal to all federal, state and local government web resources and services.